Terminal Aerodrome Forecast
Issued by NWS Portland, OR

Home | Current Version | Previous Version | Text Only | Print | Product List | Glossary On
Versions: 1 2 3 4 5 6 7 8 9 10 11 12 13 14 15 16 17 18 19 20 21 22 23 24 25 26 27 28 29
000
FTUS46 KPQR 021131
TAFSLE
TAF
KSLE 021131Z 0212/0312 28003KT P6SM BKN025 OVC040
      TEMPO 0212/0216 -RA
     FM021600 32004KT P6SM SCT025 OVC050
     FM022100 35005KT P6SM SCT050
     FM030300 00000KT P6SM SKC=

USA.gov is the U.S. government's official web portal to all federal, state and local government web resources and services.